| time (UTC) | temp C | wind direction | speed KPH | gust KPH | rain 1hr cm | rain 24hr cm | rain mn cm | humidity % | barometer mb |
| 20260506082004 | 8 | 206 | 0.0 | 3.2 | 0.00 | 0.00 | 0.00 | 58 | 1021.8 |
| 20260506081503 | 8 | 206 | 3.2 | 4.8 | 0.00 | 0.00 | 0.00 | 60 | 1021.8 |
| 20260506081004 | 8 | 227 | 0.0 | 3.2 | 0.00 | 0.00 | 0.00 | 61 | 1021.7 |
| 20260506080503 | 8 | 246 | 0.0 | 0.0 | 0.00 | 0.00 | 0.00 | 58 | 1021.8 |
| 20260506073503 | 10 | 247 | 0.0 | 0.0 | 0.00 | 0.00 | 0.00 | 54 | 1022.1 |
| 20260506073004 | 11 | 247 | 0.0 | 1.6 | 0.00 | 0.00 | 0.00 | 52 | 1021.9 |
| 20260506072503 | 11 | 246 | 0.0 | 3.2 | 0.00 | 0.00 | 0.00 | 52 | 1021.9 |
| 20260506072003 | 12 | 258 | 0.0 | 0.0 | 0.00 | 0.00 | 0.00 | 51 | 1022.0 |
| 20260506071504 | 12 | 258 | 0.0 | 4.8 | 0.00 | 0.00 | 0.00 | 52 | 1021.9 |
| 20260506070504 | 12 | 241 | 3.2 | 4.8 | 0.00 | 0.00 | 0.00 | 54 | 1021.8 |
| 20260506062503 | 12 | 329 | 4.8 | 8.0 | 0.00 | 0.00 | 0.00 | 56 | 1021.5 |
| 20260506061004 | 11 | 239 | 0.0 | 1.6 | 0.00 | 0.00 | 0.00 | 56 | 1021.3 |
| 20260506060503 | 11 | 239 | 0.0 | 0.0 | 0.00 | 0.00 | 0.00 | 54 | 1021.3 |
| 20260506051003 | 13 | 299 | 1.6 | 9.7 | 0.00 | 0.00 | 0.00 | 51 | 1020.6 |
| 20260506050503 | 13 | 304 | 1.6 | 8.0 | 0.00 | 0.00 | 0.00 | 51 | 1020.6 |
| 20260506044504 | 12 | 242 | 0.0 | 3.2 | 0.00 | 0.00 | 0.00 | 53 | 1020.5 |
| 20260506044003 | 12 | 204 | 1.6 | 4.8 | 0.00 | 0.00 | 0.00 | 52 | 1020.4 |
| 20260506043503 | 12 | 206 | 3.2 | 11.3 | 0.00 | 0.00 | 0.00 | 52 | 1020.3 |
| 20260506042004 | 13 | 184 | 1.6 | 4.8 | 0.00 | 0.00 | 0.00 | 51 | 1020.2 |
| 20260506041503 | 13 | 176 | 0.0 | 0.0 | 0.00 | 0.00 | 0.00 | 50 | 1020.1 |
| 20260506041003 | 13 | 176 | 0.0 | 3.2 | 0.00 | 0.00 | 0.00 | 50 | 1020.1 |
| 20260506040004 | 15 | 285 | 0.0 | 3.2 | 0.00 | 0.00 | 0.00 | 48 | 1020.0 |
| 20260506035503 | 15 | 292 | 4.8 | 14.5 | 0.00 | 0.00 | 0.00 | 48 | 1019.9 |
| 20260506035004 | 15 | 316 | 4.8 | 9.7 | 0.00 | 0.00 | 0.00 | 47 | 1019.7 |
| 20260506034004 | 15 | 322 | 9.7 | 16.1 | 0.00 | 0.00 | 0.00 | 47 | 1019.5 |
| 20260506033503 | 15 | 320 | 8.0 | 19.3 | 0.00 | 0.00 | 0.00 | 47 | 1019.4 |
| 20260506033005 | 15 | 304 | 6.4 | 14.5 | 0.00 | 0.00 | 0.00 | 47 | 1019.3 |
| 20260506032503 | 15 | 308 | 9.7 | 16.1 | 0.00 | 0.00 | 0.00 | 46 | 1019.3 |
| 20260506032003 | 15 | 318 | 9.7 | 19.3 | 0.00 | 0.00 | 0.00 | 46 | 1019.2 |
| 20260506031503 | 15 | 315 | 14.5 | 19.3 | 0.00 | 0.00 | 0.00 | 46 | 1019.2 |
| 20260506031003 | 15 | 316 | 9.7 | 16.1 | 0.00 | 0.00 | 0.00 | 46 | 1019.2 |
| 20260506030503 | 15 | 322 | 9.7 | 19.3 | 0.00 | 0.00 | 0.00 | 45 | 1019.1 |
| 20260506030004 | 15 | 322 | 8.0 | 19.3 | 0.00 | 0.00 | 0.00 | 44 | 1019.1 |
| 20260506025503 | 15 | 319 | 11.3 | 19.3 | 0.00 | 0.00 | 0.00 | 44 | 1019.1 |
| 20260506025004 | 15 | 331 | 4.8 | 19.3 | 0.00 | 0.00 | 0.00 | 42 | 1019.0 |
| 20260506024503 | 16 | 307 | 8.0 | 19.3 | 0.00 | 0.00 | 0.00 | 42 | 1019.0 |
| 20260506024004 | 16 | 328 | 11.3 | 19.3 | 0.00 | 0.00 | 0.00 | 42 | 1019.0 |
| 20260506023504 | 16 | 324 | 14.5 | 19.3 | 0.00 | 0.00 | 0.00 | 41 | 1019.0 |
| 20260506023003 | 16 | 321 | 8.0 | 16.1 | 0.00 | 0.00 | 0.00 | 41 | 1018.7 |
| 20260506022504 | 16 | 340 | 11.3 | 19.3 | 0.00 | 0.00 | 0.00 | 39 | 1018.7 |
| 20260506022004 | 16 | 319 | 9.7 | 19.3 | 0.00 | 0.00 | 0.00 | 39 | 1018.7 |
| 20260506021505 | 16 | 320 | 14.5 | 20.9 | 0.00 | 0.00 | 0.00 | 38 | 1018.5 |
| 20260506021003 | 17 | 347 | 9.7 | 16.1 | 0.00 | 0.00 | 0.00 | 36 | 1018.3 |
| 20260506015503 | 17 | 351 | 14.5 | 20.9 | 0.00 | 0.00 | 0.00 | 35 | 1018.2 |
| 20260506015004 | 17 | 320 | 11.3 | 19.3 | 0.00 | 0.00 | 0.00 | 35 | 1018.3 |
| 20260506014003 | 17 | 336 | 9.7 | 19.3 | 0.00 | 0.00 | 0.00 | 34 | 1018.1 |
| 20260506013503 | 17 | 351 | 14.5 | 22.5 | 0.00 | 0.00 | 0.00 | 34 | 1018.1 |
| 20260506013003 | 18 | 327 | 9.7 | 19.3 | 0.00 | 0.00 | 0.00 | 32 | 1018.1 |
| 20260506012503 | 18 | 328 | 9.7 | 19.3 | 0.00 | 0.00 | 0.00 | 33 | 1018.1 |
| 20260506012004 | 18 | 320 | 11.3 | 19.3 | 0.00 | 0.00 | 0.00 | 33 | 1018.0 |
| 20260506011504 | 18 | 306 | 8.0 | 20.9 | 0.00 | 0.00 | 0.00 | 33 | 1018.1 |
| 20260506011004 | 18 | 301 | 12.9 | 19.3 | 0.00 | 0.00 | 0.00 | 34 | 1018.1 |
| 20260506010504 | 17 | 349 | 8.0 | 16.1 | 0.00 | 0.00 | 0.00 | 35 | 1018.2 |
| 20260506010004 | 17 | 239 | 3.2 | 9.7 | 0.00 | 0.00 | 0.00 | 40 | 1018.2 |
| 20260506005504 | 17 | 235 | 4.8 | 8.0 | 0.00 | 0.00 | 0.00 | 40 | 1018.2 |
| 20260506003504 | 18 | 242 | 8.0 | 32.2 | 0.00 | 0.00 | 0.00 | 37 | 1017.9 |
| 20260506003005 | 18 | 190 | 8.0 | 14.5 | 0.00 | 0.00 | 0.00 | 38 | 1018.1 |
| 20260506002503 | 17 | 218 | 4.8 | 11.3 | 0.00 | 0.00 | 0.00 | 38 | 1018.0 |
| 20260506001503 | 17 | 248 | 6.4 | 16.1 | 0.00 | 0.00 | 0.00 | 38 | 1018.0 |
| 20260506000503 | 17 | 217 | 8.0 | 14.5 | 0.00 | 0.00 | 0.00 | 38 | 1018.0 |
| 20260506000004 | 17 | 240 | 9.7 | 16.1 | 0.00 | 0.00 | 0.00 | 39 | 1018.1 |
| 20260505235503 | 17 | 256 | 11.3 | 19.3 | 0.00 | 0.00 | 0.00 | 39 | 1018.1 |
| 20260505235003 | 17 | 241 | 4.8 | 14.5 | 0.00 | 0.00 | 0.00 | 39 | 1018.1 |
| 20260505234503 | 17 | 219 | 6.4 | 14.5 | 0.00 | 0.00 | 0.00 | 39 | 1018.0 |
| 20260505234004 | 17 | 206 | 4.8 | 11.3 | 0.00 | 0.00 | 0.00 | 38 | 1018.0 |
| 20260505233005 | 17 | 189 | 4.8 | 14.5 | 0.00 | 0.00 | 0.00 | 38 | 1018.0 |
| 20260505232504 | 17 | 209 | 4.8 | 19.3 | 0.00 | 0.00 | 0.00 | 38 | 1018.0 |
| 20260505232004 | 17 | 2 | 1.6 | 9.7 | 0.00 | 0.00 | 0.00 | 39 | 1018.1 |
| 20260505231504 | 17 | 149 | 1.6 | 4.8 | 0.00 | 0.00 | 0.00 | 39 | 1018.0 |
| 20260505231004 | 17 | 146 | 3.2 | 11.3 | 0.00 | 0.00 | 0.00 | 39 | 1018.0 |
| 20260505230504 | 17 | 171 | 3.2 | 11.3 | 0.00 | 0.00 | 0.00 | 39 | 1018.0 |
| 20260505230004 | 17 | 218 | 4.8 | 12.9 | 0.00 | 0.00 | 0.00 | 38 | 1018.0 |
| 20260505225504 | 17 | 187 | 1.6 | 8.0 | 0.00 | 0.00 | 0.00 | 39 | 1018.2 |
| 20260505225003 | 17 | 200 | 1.6 | 8.0 | 0.00 | 0.00 | 0.00 | 38 | 1018.1 |
| 20260505224504 | 17 | 239 | 4.8 | 9.7 | 0.00 | 0.00 | 0.00 | 37 | 1018.2 |
| 20260505224004 | 17 | 223 | 3.2 | 19.3 | 0.00 | 0.00 | 0.00 | 38 | 1018.2 |
| 20260505223505 | 17 | 173 | 1.6 | 9.7 | 0.00 | 0.00 | 0.00 | 37 | 1018.3 |
| 20260505223003 | 18 | 188 | 4.8 | 14.5 | 0.00 | 0.00 | 0.00 | 37 | 1018.3 |
| 20260505222503 | 18 | 216 | 6.4 | 11.3 | 0.00 | 0.00 | 0.00 | 37 | 1018.3 |
| 20260505222004 | 18 | 295 | 6.4 | 16.1 | 0.00 | 0.00 | 0.00 | 37 | 1018.2 |
| 20260505221004 | 17 | 187 | 1.6 | 11.3 | 0.00 | 0.00 | 0.00 | 38 | 1018.4 |
| 20260505220504 | 17 | 232 | 6.4 | 16.1 | 0.00 | 0.00 | 0.00 | 38 | 1018.5 |
| 20260505220003 | 17 | 243 | 4.8 | 11.3 | 0.00 | 0.00 | 0.00 | 38 | 1018.5 |
| 20260505215504 | 17 | 151 | 8.0 | 12.9 | 0.00 | 0.00 | 0.00 | 38 | 1018.5 |
| 20260505215003 | 17 | 14 | 1.6 | 8.0 | 0.00 | 0.00 | 0.00 | 39 | 1018.5 |
| 20260505214503 | 16 | 53 | 1.6 | 8.0 | 0.00 | 0.00 | 0.00 | 40 | 1018.6 |
| 20260505214003 | 16 | 192 | 3.2 | 11.3 | 0.00 | 0.00 | 0.00 | 40 | 1018.7 |
| 20260505213005 | 16 | 151 | 4.8 | 14.5 | 0.00 | 0.00 | 0.00 | 40 | 1018.9 |
| 20260505212503 | 16 | 192 | 4.8 | 14.5 | 0.00 | 0.00 | 0.00 | 41 | 1018.9 |
| 20260505211004 | 16 | 276 | 1.6 | 9.7 | 0.00 | 0.00 | 0.00 | 40 | 1019.1 |
| 20260505210504 | 16 | 297 | 4.8 | 19.3 | 0.00 | 0.00 | 0.00 | 40 | 1019.0 |
| 20260505210004 | 16 | 192 | 4.8 | 19.3 | 0.00 | 0.00 | 0.00 | 40 | 1019.1 |
| 20260505205503 | 17 | 144 | 1.6 | 12.9 | 0.00 | 0.00 | 0.00 | 41 | 1019.1 |
| 20260505205004 | 16 | 154 | 4.8 | 12.9 | 0.00 | 0.00 | 0.00 | 41 | 1019.0 |
| 20260505204003 | 16 | 237 | 8.0 | 12.9 | 0.00 | 0.00 | 0.00 | 41 | 1018.9 |
| 20260505203504 | 16 | 271 | 1.6 | 11.3 | 0.00 | 0.00 | 0.00 | 42 | 1018.9 |
| 20260505203003 | 16 | 278 | 9.7 | 14.5 | 0.00 | 0.00 | 0.00 | 42 | 1018.8 |
| 20260505202503 | 16 | 247 | 4.8 | 11.3 | 0.00 | 0.00 | 0.00 | 42 | 1019.1 |
| 20260505202004 | 16 | 187 | 6.4 | 11.3 | 0.00 | 0.00 | 0.00 | 43 | 1019.2 |
| 20260505201004 | 16 | 271 | 1.6 | 11.3 | 0.00 | 0.00 | 0.00 | 42 | 1019.3 |
| 20260505200504 | 15 | 243 | 0.0 | 4.8 | 0.00 | 0.00 | 0.00 | 42 | 1019.3 |
| 20260505195504 | 15 | 248 | 0.0 | 11.3 | 0.00 | 0.00 | 0.00 | 42 | 1019.4 |
| 20260505195004 | 16 | 332 | 3.2 | 8.0 | 0.00 | 0.00 | 0.00 | 42 | 1019.4 |
| 20260505194504 | 15 | 358 | 3.2 | 9.7 | 0.00 | 0.00 | 0.00 | 43 | 1019.6 |
| 20260505194003 | 15 | 16 | 3.2 | 4.8 | 0.00 | 0.00 | 0.00 | 43 | 1019.6 |
| 20260505193503 | 15 | 258 | 9.7 | 16.1 | 0.00 | 0.00 | 0.00 | 42 | 1019.5 |
| 20260505193004 | 16 | 298 | 8.0 | 19.3 | 0.00 | 0.00 | 0.00 | 42 | 1019.3 |
| 20260505192504 | 16 | 144 | 3.2 | 19.3 | 0.00 | 0.00 | 0.00 | 42 | 1019.5 |
| 20260505192003 | 16 | 29 | 3.2 | 8.0 | 0.00 | 0.00 | 0.00 | 43 | 1019.5 |
| 20260505191504 | 15 | 319 | 3.2 | 12.9 | 0.00 | 0.00 | 0.00 | 44 | 1019.5 |
| 20260505191004 | 16 | 12 | 8.0 | 14.5 | 0.00 | 0.00 | 0.00 | 43 | 1019.6 |
| 20260505190504 | 16 | 11 | 8.0 | 19.3 | 0.00 | 0.00 | 0.00 | 43 | 1019.5 |
| 20260505190004 | 16 | 12 | 8.0 | 19.3 | 0.00 | 0.00 | 0.00 | 42 | 1019.4 |
| 20260505185503 | 16 | 323 | 6.4 | 12.9 | 0.00 | 0.00 | 0.00 | 42 | 1019.5 |
| 20260505185004 | 16 | 317 | 4.8 | 14.5 | 0.00 | 0.00 | 0.00 | 41 | 1019.5 |
| 20260505184503 | 17 | 29 | 1.6 | 8.0 | 0.00 | 0.00 | 0.00 | 37 | 1019.5 |
| 20260505184003 | 16 | 27 | 0.0 | 3.2 | 0.00 | 0.00 | 0.00 | 37 | 1019.4 |
| 20260505183504 | 16 | 9 | 1.6 | 4.8 | 0.00 | 0.00 | 0.00 | 38 | 1019.4 |
| 20260505183004 | 16 | 79 | 3.2 | 9.7 | 0.00 | 0.00 | 0.00 | 38 | 1019.4 |
| 20260505182504 | 16 | 140 | 0.0 | 4.8 | 0.00 | 0.00 | 0.00 | 39 | 1019.4 |
| 20260505182004 | 16 | 139 | 3.2 | 4.8 | 0.00 | 0.00 | 0.00 | 39 | 1019.4 |
| 20260505181504 | 16 | 116 | 1.6 | 4.8 | 0.00 | 0.00 | 0.00 | 40 | 1019.4 |
| 20260505181004 | 16 | 110 | 3.2 | 14.5 | 0.00 | 0.00 | 0.00 | 41 | 1019.4 |
| 20260505180504 | 15 | 8 | 4.8 | 11.3 | 0.00 | 0.00 | 0.00 | 42 | 1019.3 |
| 20260505180003 | 15 | 79 | 3.2 | 9.7 | 0.00 | 0.00 | 0.00 | 42 | 1019.3 |
| 20260505175504 | 15 | 92 | 3.2 | 8.0 | 0.00 | 0.00 | 0.00 | 43 | 1019.3 |
| 20260505175004 | 15 | 6 | 6.4 | 11.3 | 0.00 | 0.00 | 0.00 | 41 | 1019.2 |
| 20260505174504 | 15 | 16 | 6.4 | 12.9 | 0.00 | 0.00 | 0.00 | 41 | 1019.1 |
| 20260505174003 | 15 | 353 | 3.2 | 8.0 | 0.00 | 0.00 | 0.00 | 41 | 1019.1 |
| 20260505173505 | 16 | 13 | 1.6 | 4.8 | 0.00 | 0.00 | 0.00 | 40 | 1019.1 |
| 20260505173004 | 16 | 32 | 8.0 | 12.9 | 0.00 | 0.00 | 0.00 | 39 | 1019.1 |
| 20260505172003 | 16 | 81 | 4.8 | 11.3 | 0.00 | 0.00 | 0.00 | 41 | 1019.0 |
| 20260505171504 | 15 | 104 | 4.8 | 11.3 | 0.00 | 0.00 | 0.00 | 42 | 1019.0 |
| 20260505171003 | 15 | 93 | 4.8 | 9.7 | 0.00 | 0.00 | 0.00 | 42 | 1019.0 |
| 20260505170004 | 15 | 32 | 3.2 | 8.0 | 0.00 | 0.00 | 0.00 | 43 | 1019.1 |
| 20260505165503 | 14 | 41 | 3.2 | 8.0 | 0.00 | 0.00 | 0.00 | 44 | 1019.0 |
| 20260505165003 | 14 | 106 | 1.6 | 4.8 | 0.00 | 0.00 | 0.00 | 43 | 1019.0 |
| 20260505164504 | 14 | 104 | 1.6 | 4.8 | 0.00 | 0.00 | 0.00 | 43 | 1019.0 |
| 20260505163504 | 15 | 129 | 1.6 | 8.0 | 0.00 | 0.00 | 0.00 | 42 | 1019.0 |
| 20260505163003 | 15 | 133 | 1.6 | 11.3 | 0.00 | 0.00 | 0.00 | 42 | 1019.0 |
| 20260505162504 | 15 | 101 | 1.6 | 4.8 | 0.00 | 0.00 | 0.00 | 44 | 1018.9 |
| 20260505161503 | 14 | 104 | 1.6 | 11.3 | 0.00 | 0.00 | 0.00 | 44 | 1018.8 |
| 20260505161004 | 14 | 83 | 3.2 | 4.8 | 0.00 | 0.00 | 0.00 | 45 | 1018.7 |
| 20260505160504 | 14 | 86 | 1.6 | 4.8 | 0.00 | 0.00 | 0.00 | 45 | 1018.5 |
| 20260505153003 | 13 | 113 | 0.0 | 3.2 | 0.00 | 0.00 | 0.00 | 46 | 1018.5 |
| 20260505152504 | 13 | 115 | 1.6 | 4.8 | 0.00 | 0.00 | 0.00 | 47 | 1018.4 |
| 20260505152003 | 13 | 116 | 1.6 | 4.8 | 0.00 | 0.00 | 0.00 | 48 | 1018.5 |
| 20260505151503 | 13 | 137 | 4.8 | 12.9 | 0.00 | 0.00 | 0.00 | 49 | 1018.3 |
| 20260505150504 | 12 | 139 | 8.0 | 12.9 | 0.00 | 0.00 | 0.00 | 49 | 1018.3 |
| 20260505140503 | 9 | 215 | 0.0 | 0.0 | 0.00 | 0.00 | 0.00 | 54 | 1018.0 |
| 20260505124504 | 6 | 245 | 0.0 | 0.0 | 0.00 | 0.00 | 0.00 | 63 | 1017.6 |
| 20260505124003 | 6 | 245 | 0.0 | 0.0 | 0.00 | 0.00 | 0.00 | 62 | 1017.6 |
| 20260505123504 | 6 | 245 | 0.0 | 1.6 | 0.00 | 0.00 | 0.00 | 61 | 1017.6 |
| 20260505123003 | 6 | 245 | 1.6 | 4.8 | 0.00 | 0.00 | 0.00 | 61 | 1017.6 |
| 20260505122503 | 7 | 242 | 3.2 | 4.8 | 0.00 | 0.00 | 0.00 | 60 | 1017.7 |
| 20260505122003 | 7 | 236 | 3.2 | 8.0 | 0.00 | 0.00 | 0.00 | 61 | 1017.6 |
| 20260505121503 | 7 | 235 | 3.2 | 4.8 | 0.00 | 0.00 | 0.00 | 60 | 1017.6 |
| 20260505121003 | 6 | 234 | 3.2 | 4.8 | 0.00 | 0.00 | 0.00 | 60 | 1017.6 |
| 20260505120504 | 6 | 233 | 3.2 | 8.0 | 0.00 | 0.00 | 0.00 | 60 | 1017.5 |
| 20260505120005 | 6 | 233 | 3.2 | 8.0 | 0.00 | 0.00 | 0.00 | 62 | 1017.6 |
| 20260505115504 | 6 | 235 | 0.0 | 3.2 | 0.00 | 0.00 | 0.00 | 65 | 1017.5 |
| 20260505115004 | 5 | 211 | 0.0 | 0.0 | 0.00 | 0.00 | 0.00 | 65 | 1017.5 |
| 20260505114504 | 5 | 211 | 0.0 | 0.0 | 0.00 | 0.00 | 0.00 | 64 | 1017.5 |
| 20260505114003 | 5 | 211 | 0.0 | 0.0 | 0.00 | 0.00 | 0.00 | 64 | 1017.6 |
| 20260505113503 | 5 | 211 | 0.0 | 0.0 | 0.00 | 0.00 | 0.00 | 63 | 1017.4 |
| 20260505112503 | 5 | 211 | 0.0 | 1.6 | 0.00 | 0.00 | 0.00 | 64 | 1017.5 |
| 20260505112005 | 5 | 211 | 0.0 | 0.0 | 0.00 | 0.00 | 0.00 | 63 | 1017.5 |
| 20260505111503 | 5 | 211 | 0.0 | 0.0 | 0.00 | 0.00 | 0.00 | 63 | 1017.4 |
| 20260505110504 | 5 | 211 | 0.0 | 0.0 | 0.00 | 0.00 | 0.00 | 64 | 1017.4 |
| 20260505102003 | 6 | 232 | 0.0 | 0.0 | 0.00 | 0.00 | 0.00 | 60 | 1017.5 |
| 20260505101504 | 6 | 232 | 0.0 | 1.6 | 0.00 | 0.00 | 0.00 | 61 | 1017.5 |
| 20260505101003 | 7 | 232 | 0.0 | 3.2 | 0.00 | 0.00 | 0.00 | 60 | 1017.6 |
| 20260505100003 | 6 | 237 | 3.2 | 4.8 | 0.00 | 0.00 | 0.00 | 61 | 1017.6 |
| 20260505095504 | 6 | 262 | 1.6 | 3.2 | 0.00 | 0.00 | 0.00 | 63 | 1017.5 |
| 20260505095005 | 6 | 297 | 1.6 | 4.8 | 0.00 | 0.00 | 0.00 | 62 | 1017.6 |
| 20260505094004 | 7 | 214 | 1.6 | 3.2 | 0.00 | 0.00 | 0.00 | 63 | 1017.6 |
| 20260505093505 | 7 | 236 | 0.0 | 0.0 | 0.00 | 0.00 | 0.00 | 62 | 1017.9 |
| 20260505092004 | 7 | 246 | 1.6 | 4.8 | 0.00 | 0.00 | 0.00 | 62 | 1017.9 |
| 20260505091504 | 7 | 221 | 1.6 | 3.2 | 0.00 | 0.00 | 0.00 | 61 | 1017.9 |
| 20260505091003 | 8 | 224 | 1.6 | 3.2 | 0.00 | 0.00 | 0.00 | 60 | 1017.9 |
| 20260505090004 | 8 | 232 | 3.2 | 8.0 | 0.00 | 0.00 | 0.00 | 61 | 1017.9 |
| 20260505085003 | 8 | 236 | 4.8 | 12.9 | 0.00 | 0.00 | 0.00 | 61 | 1018.0 |
| 20260505084503 | 8 | 216 | 3.2 | 8.0 | 0.00 | 0.00 | 0.00 | 62 | 1018.0 |
| 20260505084004 | 8 | 222 | 4.8 | 8.0 | 0.00 | 0.00 | 0.00 | 62 | 1018.0 |
| 20260505083504 | 8 | 229 | 3.2 | 4.8 | 0.00 | 0.00 | 0.00 | 62 | 1018.0 |
| 20260505083004 | 8 | 229 | 3.2 | 4.8 | 0.00 | 0.00 | 0.00 | 62 | 1018.0 |